User: anonymous   Login
Location: Niverville
(49.6028°N, 97.0419°W)
Time: 07:17:32
(UTC-06:00)
Language:

Cosmos 2237 Rocket - Orbit

View from above orbital plane
View from above orbital plane
View from above satellite
View from above satellite

Ground track
Ground track

The orbit data is extracted from the following two-line orbital elements,

1 22566U 93016B   14332.14417971 -.00000216  00000-0 -87172-4 0  2147
2 22566 071.0084 223.2239 0007904 115.0454 245.1490 14.14870265119437
Epoch (UTC): 28 November 2014 03:27:37
Eccentricity: 0.0007904
inclination: 71.0084°
perigee height: 837 km
apogee height: 848 km
right ascension of ascending node: 223.2239°
argument of perigee: 115.0454°
revolutions per day: 14.14870265
mean anomaly at epoch: 245.1490°
orbit number at epoch: 11943

The dashed part of the orbit path shows where the satellite is in the earth's shadow,  

DLR